Location: Sungai Bunut
(2.6333°N, 113.7333°E)
Time: 08:09:33
(UTC+00:00)

S-56A Canister/Altair - Pass Details

Date: 05 December 2023
Orbit: 639 x 2488 km, 38.9° (Epoch: 04 March)

Event Time Altitude Azimuth Distance (km) Brightness Sun altitude
Rises 11:54:34 0° 310° (NW) 3,985 11.5 -23.8°
Reaches altitude 10° 11:56:55 10° 309° (NW) 3,225 11.0 -24.4°
Maximum altitude 12:05:16 85° 222° (SW) 1,674 9.1 -26.3°
Drops below altitude 10° 12:18:02 10° 134° (SE) 4,741 11.3 -29.2°
Sets 12:22:15 0° 133° (SE) 5,930 11.9 -30.2°
